Regional Weather Roundup
Issued by NWS State College, PA

Home | Current Version | Previous Version | Text Only | Print | Product List | Glossary Off
Versions: 1 2 3 4 5 6 7 8 9 10 11 12 13 14 15 16 17 18 19 20 21 22 23 24 25 26 27 28 29 30 31 32 33 34 35 36 37 38 39 40 41 42 43 44 45 46 47 48 49 50

000
ASUS41 KCTP 010103
RWRCTP

REGIONAL WEATHER ROUNDUP
NATIONAL WEATHER SERVICE STATE COLLEGE PA
900 PM EDT SUN APR 30 2017

Note: "fair" indicates few or no clouds below 12,000 feet with no
significant weather and/or obstructions to visibility.

* = STATION THAT DOES NOT REPORT PRECIPITATION /E.G. RAIN...SNOW...ETC/
    THUNDER OR FOG.

PAZ002>004-007>009-013>016-020>023-029>032-010200-
WESTERN PENNSYLVANIA

CITY           SKY/WX    TMP DP  RH WIND       PRES   REMARKS
ERIE           MOCLDY    50  46  86 E8        29.85F
MEADVILLE      MOCLDY    71  63  75 VRB3      29.88S
FRANKLIN*      CLEAR     68  61  77 SE9       29.91S
NEW CASTLE     FAIR      69  63  81 CALM      29.88S
BEAVER COUNTY  NOT AVBL
BUTLER*        CLEAR     72  63  73 E6        29.90S
PITTSBURGH INT MOCLDY    75  64  68 SE3       29.88F
PITTSBURGH     CLEAR     80  55  42 S9        29.89F
INDIANA*       PTCLDY    77  66  69 SE12      29.96S
LATROBE        PTCLDY    79  64  61 S9        29.92F
WASHINGTON CO* CLEAR     68  61  77 SW3       29.92S
$$

PAZ004>006-010>012-017>019-024>028-033>037-041-042-045-046-049>053-010200-
CENTRAL PENNSYLVANIA

CITY           SKY/WX    TMP DP  RH WIND       PRES   REMARKS
BRADFORD       PTCLDY    64  62  93 SE8       29.96F
DUBOIS         CLEAR     70  62  76 SE10      29.94F
CLEARFIELD     CLEAR     70  63  78 VRB3      29.98S
JOHNSTOWN      PTCLDY    70  65  84 SE7G16    29.99S
ALTOONA        MOCLDY    75  67  76 SE6       29.99S
STATE COLLEGE  NOT AVBL
WILLIAMSPORT   CLOUDY    66  48  52 E10       30.01F
SELINSGROVE    CLOUDY    65  48  54 SE10      30.05S
FT INDIANTOWN  CLOUDY    62  48  61 E9        30.07F
CAPITAL CITY   CLOUDY    68  50  52 E16       30.04F
HARRISBURG     MOCLDY    66  51  58 E16       30.04F
YORK           PTCLDY    67  58  72 E10       30.03F
$$

PAZ038>040-043-044-047-048-054-055-060>062-067>071-010200-
EASTERN PENNSYLVANIA

CITY           SKY/WX    TMP DP  RH WIND       PRES   REMARKS
SCRANTON       CLOUDY    58  43  57 E5        30.08F
MOUNT POCONO   CLOUDY    48  38  68 SE13      30.13S
ALLENTOWN      CLOUDY    54  41  61 E13       30.14F
QUAKERTOWN*    CLOUDY    54  45  71 E9        30.14F
READING        PTCLDY    59  47  64 E8        30.10S
LANCASTER      CLOUDY    62  52  69 E13       30.08R
COATESVILLE    MOCLDY    57  48  72 E15G23    30.12R
POTTSTOWN      CLOUDY    54  45  71 E6        30.14S
BLUE BELL      CLOUDY    52  46  82 E15       30.15F
DOYLESTOWN     CLOUDY    51  45  79 VRB3      30.15R
WILLOW GROVE   NOT AVBL
NORTH PHILA    CLOUDY    54  47  77 E14       30.18R
PHILADELPHIA   CLOUDY    54  48  80 E13       30.16R
$$



USA.gov is the U.S. government's official web portal to all federal, state and local government web resources and services.